Tracking 30923 objects as of 1-Jul-2025
HD Live streaming from Space Station
objects crossing your sky now

STARLINK-5165

Track STARLINK-5165 now!
10-day predictions
STARLINK-5165 is classified as:


NORAD ID: 54081
Int'l Code: 2022-136AG
Perigee: 545.8 km
Apogee: 548.0 km
Inclination: 53.2 °
Period: 95.4 minutes
Semi major axis: 6917 km
RCS: Unknown
Launch date: October 20, 2022
Source: United States (US)
Launch site: AIR FORCE EASTERN TEST RANGE (AFETR)
Your satellite tracking list
Your tracking list is empty




NASA's NSSDC Master Catalog

Two Line Element Set (TLE):
1 54081U 22136AG  25181.83727130  .00001374  00000-0  10441-3 0  9998
2 54081  53.2186  24.6824 0001558  88.0749 272.0422 15.08832944148967
Source of the keplerian elements: AFSPC